Time,TemperatureF,DewpointF,PressureIn,WindDirection,WindDirectionDegrees,WindSpeedMPH,WindSpeedGustMPH,Humidity,HourlyPrecipIn,Conditions,Clouds,dailyrainin,SolarRadiationWatts/m^2,SoftwareType,DateUTC
2013-09-28 00:01:00,57.5,46.0,30.03,WNW,300,0.0,0.0,65,0.00,,,0.00,0.0,WUHU216DAVISVP2,2013-09-28 07:01:00,
2013-09-28 00:06:00,57.4,45.9,30.03,WNW,300,0.0,0.0,65,0.00,,,0.00,0.0,WUHU216DAVISVP2,2013-09-28 07:06:00,
2013-09-28 00:11:00,57.4,46.3,30.03,WNW,300,0.0,0.0,66,0.00,,,0.00,0.0,WUHU216DAVISVP2,2013-09-28 07:11:00,
2013-09-28 00:16:00,57.3,46.2,30.03,WNW,300,0.0,0.0,66,0.00,,,0.00,0.0,WUHU216DAVISVP2,2013-09-28 07:16:00,
2013-09-28 00:21:00,57.3,46.2,30.03,WNW,300,0.0,0.0,66,0.00,,,0.00,0.0,WUHU216DAVISVP2,2013-09-28 07:21:00,
2013-09-28 00:26:00,57.2,46.3,30.03,WNW,300,0.0,0.0,67,0.00,,,0.00,0.0,WUHU216DAVISVP2,2013-09-28 07:26:00,
2013-09-28 00:31:00,56.8,46.0,30.03,WNW,300,0.0,0.0,67,0.00,,,0.00,0.0,WUHU216DAVISVP2,2013-09-28 07:31:00,
2013-09-28 00:36:00,56.5,45.7,30.03,WNW,300,0.0,0.0,67,0.00,,,0.00,0.0,WUHU216DAVISVP2,2013-09-28 07:36:00,
2013-09-28 00:41:00,56.4,46.1,30.03,WNW,300,0.0,0.0,68,0.00,,,0.00,0.0,WUHU216DAVISVP2,2013-09-28 07:41:00,
2013-09-28 00:46:00,56.2,46.3,30.03,WNW,300,0.0,0.0,69,0.00,,,0.00,0.0,WUHU216DAVISVP2,2013-09-28 07:46:00,
2013-09-28 00:51:00,56.2,45.9,30.03,WNW,300,0.0,0.0,68,0.00,,,0.00,0.0,WUHU216DAVISVP2,2013-09-28 07:51:00,
2013-09-28 00:56:00,56.1,45.8,30.03,WNW,300,0.0,0.0,68,0.00,,,0.00,0.0,WUHU216DAVISVP2,2013-09-28 07:56:00,
2013-09-28 01:01:00,56.1,45.4,30.03,WNW,300,0.0,0.0,67,0.00,,,0.00,0.0,WUHU216DAVISVP2,2013-09-28 08:01:00,
2013-09-28 01:06:00,56.0,45.7,30.03,WNW,300,0.0,0.0,68,0.00,,,0.00,0.0,WUHU216DAVISVP2,2013-09-28 08:06:00,
2013-09-28 01:11:00,55.9,46.4,30.03,WNW,300,0.0,0.0,70,0.00,,,0.00,0.0,WUHU216DAVISVP2,2013-09-28 08:11:00,
2013-09-28 01:16:00,55.8,45.9,30.03,WNW,300,0.0,0.0,69,0.00,,,0.00,0.0,WUHU216DAVISVP2,2013-09-28 08:16:00,
2013-09-28 01:21:00,55.6,46.1,30.03,WNW,300,0.0,1.0,70,0.00,,,0.00,0.0,WUHU216DAVISVP2,2013-09-28 08:21:00,
2013-09-28 01:26:00,55.5,45.6,30.03,WNW,300,0.0,1.0,69,0.00,,,0.00,0.0,WUHU216DAVISVP2,2013-09-28 08:26:00,
2013-09-28 01:31:00,55.8,45.9,30.03,WNW,300,0.0,1.0,69,0.00,,,0.00,0.0,WUHU216DAVISVP2,2013-09-28 08:31:00,
2013-09-28 01:36:00,55.9,46.7,30.03,WNW,300,0.0,1.0,71,0.00,,,0.00,0.0,WUHU216DAVISVP2,2013-09-28 08:36:00,
2013-09-28 01:41:00,55.7,46.1,30.03,WNW,300,0.0,1.0,70,0.00,,,0.00,0.0,WUHU216DAVISVP2,2013-09-28 08:41:00,
2013-09-28 01:46:00,55.6,45.2,30.03,WNW,300,0.0,1.0,68,0.00,,,0.00,0.0,WUHU216DAVISVP2,2013-09-28 08:46:00,
2013-09-28 01:51:00,55.7,45.3,30.03,WNW,300,0.0,1.0,68,0.00,,,0.00,0.0,WUHU216DAVISVP2,2013-09-28 08:51:00,
2013-09-28 01:56:00,55.6,45.2,30.03,WNW,300,0.0,1.0,68,0.00,,,0.00,0.0,WUHU216DAVISVP2,2013-09-28 08:56:00,
2013-09-28 02:01:00,55.5,44.7,30.03,WNW,300,0.0,1.0,67,0.00,,,0.00,0.0,WUHU216DAVISVP2,2013-09-28 09:01:00,
2013-09-28 02:06:00,55.4,44.6,30.03,WNW,300,0.0,0.0,67,0.00,,,0.00,0.0,WUHU216DAVISVP2,2013-09-28 09:06:00,
2013-09-28 02:11:00,55.2,44.6,30.03,WNW,300,0.0,0.0,67,0.00,,,0.00,0.0,WUHU216DAVISVP2,2013-09-28 09:11:00,
2013-09-28 02:16:00,55.1,44.5,30.03,WNW,300,0.0,0.0,67,0.00,,,0.00,0.0,WUHU216DAVISVP2,2013-09-28 09:16:00,
2013-09-28 02:21:00,55.0,44.4,30.03,WNW,300,0.0,0.0,67,0.00,,,0.00,0.0,WUHU216DAVISVP2,2013-09-28 09:21:00,
2013-09-28 02:26:00,54.9,44.7,30.04,WNW,300,0.0,0.0,68,0.00,,,0.00,0.0,WUHU216DAVISVP2,2013-09-28 09:26:00,
2013-09-28 02:31:00,54.8,44.4,30.04,WNW,300,0.0,0.0,68,0.00,,,0.00,0.0,WUHU216DAVISVP2,2013-09-28 09:31:00,
2013-09-28 02:36:00,54.7,44.5,30.04,WNW,300,0.0,0.0,68,0.00,,,0.00,0.0,WUHU216DAVISVP2,2013-09-28 09:36:00,
2013-09-28 02:41:00,54.5,44.3,30.04,WNW,300,0.0,0.0,68,0.00,,,0.00,0.0,WUHU216DAVISVP2,2013-09-28 09:41:00,
2013-09-28 02:46:00,54.4,44.2,30.03,WNW,300,0.0,0.0,68,0.00,,,0.00,0.0,WUHU216DAVISVP2,2013-09-28 09:46:00,
2013-09-28 02:51:00,54.3,44.5,30.03,WNW,300,0.0,0.0,69,0.00,,,0.00,0.0,WUHU216DAVISVP2,2013-09-28 09:51:00,
2013-09-28 02:56:00,54.3,44.8,30.03,WNW,300,0.0,0.0,70,0.00,,,0.00,0.0,WUHU216DAVISVP2,2013-09-28 09:56:00,
2013-09-28 03:01:00,54.2,44.4,30.03,WNW,300,0.0,0.0,69,0.00,,,0.00,0.0,WUHU216DAVISVP2,2013-09-28 10:01:00,
2013-09-28 03:06:00,54.1,45.0,30.03,WNW,300,0.0,0.0,71,0.00,,,0.00,0.0,WUHU216DAVISVP2,2013-09-28 10:06:00,
2013-09-28 03:11:00,53.9,45.2,30.03,WNW,300,0.0,0.0,72,0.00,,,0.00,0.0,WUHU216DAVISVP2,2013-09-28 10:11:00,
2013-09-28 03:16:00,53.7,44.6,30.03,WNW,300,0.0,1.0,71,0.00,,,0.00,0.0,WUHU216DAVISVP2,2013-09-28 10:16:00,
2013-09-28 03:21:00,53.7,44.3,30.03,WNW,300,1.0,2.0,70,0.00,,,0.00,0.0,WUHU216DAVISVP2,2013-09-28 10:21:00,
2013-09-28 03:26:00,53.7,43.9,30.03,WNW,300,0.0,2.0,69,0.00,,,0.00,0.0,WUHU216DAVISVP2,2013-09-28 10:26:00,
2013-09-28 03:38:00,54.1,43.5,30.03,WNW,300,0.0,2.0,67,0.00,,,0.00,0.0,WUHU216DAVISVP2,2013-09-28 10:38:00,
2013-09-28 03:43:00,54.2,43.6,30.03,WNW,300,2.0,2.0,67,0.00,,,0.00,0.0,WUHU216DAVISVP2,2013-09-28 10:43:00,
2013-09-28 03:48:00,54.1,43.9,30.03,WNW,300,0.0,2.0,68,0.00,,,0.00,0.0,WUHU216DAVISVP2,2013-09-28 10:48:00,
2013-09-28 03:53:00,54.0,44.2,30.03,WNW,300,0.0,2.0,69,0.00,,,0.00,0.0,WUHU216DAVISVP2,2013-09-28 10:53:00,
2013-09-28 03:58:00,54.0,44.2,30.03,WNW,300,0.0,2.0,69,0.00,,,0.00,0.0,WUHU216DAVISVP2,2013-09-28 10:58:00,
2013-09-28 04:03:00,53.8,44.0,30.03,WNW,300,0.0,2.0,69,0.00,,,0.00,0.0,WUHU216DAVISVP2,2013-09-28 11:03:00,
2013-09-28 04:08:00,53.7,43.9,30.03,WNW,300,0.0,0.0,69,0.00,,,0.00,0.0,WUHU216DAVISVP2,2013-09-28 11:08:00,
2013-09-28 04:13:00,53.5,43.7,30.03,WNW,300,0.0,0.0,69,0.00,,,0.00,0.0,WUHU216DAVISVP2,2013-09-28 11:13:00,
2013-09-28 04:18:00,53.4,43.6,30.03,WNW,300,0.0,0.0,69,0.00,,,0.00,0.0,WUHU216DAVISVP2,2013-09-28 11:18:00,
2013-09-28 04:23:00,53.2,43.4,30.03,WNW,300,0.0,2.0,69,0.00,,,0.00,0.0,WUHU216DAVISVP2,2013-09-28 11:23:00,
2013-09-28 04:28:00,53.2,43.8,30.03,WNW,300,0.0,2.0,70,0.00,,,0.00,0.0,WUHU216DAVISVP2,2013-09-28 11:28:00,
2013-09-28 04:33:00,53.1,43.3,30.03,WNW,300,0.0,2.0,69,0.00,,,0.00,0.0,WUHU216DAVISVP2,2013-09-28 11:33:00,
2013-09-28 04:38:00,53.3,43.1,30.04,WNW,300,2.0,2.0,68,0.00,,,0.00,0.0,WUHU216DAVISVP2,2013-09-28 11:38:00,
2013-09-28 04:43:00,53.5,42.9,30.03,WNW,300,1.0,3.0,67,0.00,,,0.00,0.0,WUHU216DAVISVP2,2013-09-28 11:43:00,
2013-09-28 04:48:00,53.6,42.6,30.03,WNW,300,2.0,3.0,66,0.00,,,0.00,0.0,WUHU216DAVISVP2,2013-09-28 11:48:00,
2013-09-28 04:53:00,53.8,42.4,30.03,WNW,300,2.0,3.0,65,0.00,,,0.00,0.0,WUHU216DAVISVP2,2013-09-28 11:53:00,
2013-09-28 04:58:00,53.9,42.1,30.03,WNW,300,1.0,3.0,64,0.00,,,0.00,0.0,WUHU216DAVISVP2,2013-09-28 11:58:00,
2013-09-28 05:03:00,54.0,42.2,30.03,WNW,300,1.0,2.0,64,0.00,,,0.00,0.0,WUHU216DAVISVP2,2013-09-28 12:03:00,
2013-09-28 05:08:00,54.1,42.3,30.03,WNW,300,0.0,2.0,64,0.00,,,0.00,0.0,WUHU216DAVISVP2,2013-09-28 12:08:00,
2013-09-28 05:13:00,53.8,42.8,30.03,WNW,300,1.0,2.0,66,0.00,,,0.00,0.0,WUHU216DAVISVP2,2013-09-28 12:13:00,
2013-09-28 05:18:00,53.5,42.9,30.03,WNW,300,0.0,2.0,67,0.00,,,0.00,0.0,WUHU216DAVISVP2,2013-09-28 12:18:00,
2013-09-28 05:23:00,53.5,42.5,30.03,WNW,300,0.0,2.0,66,0.00,,,0.00,0.0,WUHU216DAVISVP2,2013-09-28 12:23:00,
2013-09-28 05:28:00,53.6,42.2,30.03,WNW,300,0.0,2.0,65,0.00,,,0.00,0.0,WUHU216DAVISVP2,2013-09-28 12:28:00,
2013-09-28 05:33:00,53.8,42.0,30.03,WNW,300,2.0,3.0,64,0.00,,,0.00,0.0,WUHU216DAVISVP2,2013-09-28 12:33:00,
2013-09-28 05:38:00,53.7,41.9,30.03,WNW,300,2.0,3.0,64,0.00,,,0.00,0.0,WUHU216DAVISVP2,2013-09-28 12:38:00,
2013-09-28 05:43:00,53.6,41.8,30.03,WNW,300,2.0,3.0,64,0.00,,,0.00,0.0,WUHU216DAVISVP2,2013-09-28 12:43:00,
2013-09-28 05:48:00,53.8,42.0,30.03,WNW,300,3.0,4.0,64,0.00,,,0.00,0.0,WUHU216DAVISVP2,2013-09-28 12:48:00,
2013-09-28 05:53:00,53.9,42.1,30.03,WNW,300,2.0,4.0,64,0.00,,,0.00,0.0,WUHU216DAVISVP2,2013-09-28 12:53:00,
2013-09-28 05:58:00,53.8,41.9,30.03,WNW,300,3.0,4.0,64,0.00,,,0.00,0.0,WUHU216DAVISVP2,2013-09-28 12:58:00,
2013-09-28 06:03:00,53.7,41.8,30.03,WNW,300,1.0,4.0,64,0.00,,,0.00,0.0,WUHU216DAVISVP2,2013-09-28 13:03:00,
2013-09-28 06:08:00,53.6,42.1,30.04,WNW,300,0.0,3.0,65,0.00,,,0.00,0.0,WUHU216DAVISVP2,2013-09-28 13:08:00,
2013-09-28 06:13:00,53.5,42.4,30.03,WNW,300,0.0,3.0,66,0.00,,,0.00,0.0,WUHU216DAVISVP2,2013-09-28 13:13:00,
2013-09-28 06:18:00,53.1,42.0,30.03,WNW,300,0.0,3.0,66,0.00,,,0.00,0.0,WUHU216DAVISVP2,2013-09-28 13:18:00,
2013-09-28 06:23:00,52.9,41.8,30.04,WNW,300,0.0,2.0,66,0.00,,,0.00,0.0,WUHU216DAVISVP2,2013-09-28 13:23:00,
2013-09-28 06:28:00,52.8,41.7,30.04,WNW,300,0.0,2.0,66,0.00,,,0.00,0.0,WUHU216DAVISVP2,2013-09-28 13:28:00,
2013-09-28 06:33:00,52.7,42.0,30.04,WNW,300,0.0,1.0,67,0.00,,,0.00,0.0,WUHU216DAVISVP2,2013-09-28 13:33:00,
2013-09-28 06:38:00,52.6,42.3,30.04,WNW,300,0.0,1.0,68,0.00,,,0.00,0.0,WUHU216DAVISVP2,2013-09-28 13:38:00,
2013-09-28 06:43:00,52.4,42.1,30.04,WNW,300,0.0,0.0,68,0.00,,,0.00,0.0,WUHU216DAVISVP2,2013-09-28 13:43:00,
2013-09-28 06:48:00,52.2,42.7,30.04,WNW,300,0.0,0.0,70,0.00,,,0.00,0.0,WUHU216DAVISVP2,2013-09-28 13:48:00,
2013-09-28 06:53:00,51.9,42.8,30.04,WNW,300,0.0,0.0,71,0.00,,,0.00,5.0,WUHU216DAVISVP2,2013-09-28 13:53:00,
2013-09-28 06:58:00,51.5,42.1,30.04,WNW,300,0.0,0.0,70,0.00,,,0.00,7.0,WUHU216DAVISVP2,2013-09-28 13:58:00,
2013-09-28 07:03:00,51.3,42.3,30.04,WNW,300,0.0,0.0,71,0.00,,,0.00,11.0,WUHU216DAVISVP2,2013-09-28 14:03:00,
2013-09-28 07:08:00,51.0,41.7,30.05,WNW,300,0.0,1.0,70,0.00,,,0.00,16.0,WUHU216DAVISVP2,2013-09-28 14:08:00,
2013-09-28 07:13:00,51.0,42.0,30.05,WNW,300,0.0,1.0,71,0.00,,,0.00,23.0,WUHU216DAVISVP2,2013-09-28 14:13:00,
2013-09-28 07:18:00,51.0,42.0,30.05,WNW,300,0.0,1.0,71,0.00,,,0.00,32.0,WUHU216DAVISVP2,2013-09-28 14:18:00,
2013-09-28 07:23:00,51.1,42.1,30.05,WNW,300,0.0,1.0,71,0.00,,,0.00,42.0,WUHU216DAVISVP2,2013-09-28 14:23:00,
2013-09-28 07:28:00,51.4,42.4,30.05,WNW,300,0.0,1.0,71,0.00,,,0.00,53.0,WUHU216DAVISVP2,2013-09-28 14:28:00,
2013-09-28 07:33:00,51.7,42.7,30.05,WNW,300,0.0,1.0,71,0.00,,,0.00,67.0,WUHU216DAVISVP2,2013-09-28 14:33:00,
2013-09-28 07:38:00,52.2,42.8,30.05,WNW,300,0.0,1.0,70,0.00,,,0.00,83.0,WUHU216DAVISVP2,2013-09-28 14:38:00,
2013-09-28 07:43:00,52.7,43.3,30.05,WNW,300,0.0,1.0,70,0.00,,,0.00,98.0,WUHU216DAVISVP2,2013-09-28 14:43:00,
2013-09-28 07:48:00,53.5,43.3,30.05,WNW,300,0.0,1.0,68,0.00,,,0.00,116.0,WUHU216DAVISVP2,2013-09-28 14:48:00,
2013-09-28 07:53:00,54.5,43.9,30.05,WNW,300,0.0,1.0,67,0.00,,,0.00,134.0,WUHU216DAVISVP2,2013-09-28 14:53:00,
2013-09-28 07:58:00,55.4,43.6,30.05,WNW,300,0.0,1.0,64,0.00,,,0.00,153.0,WUHU216DAVISVP2,2013-09-28 14:58:00,
2013-09-28 08:03:00,56.0,43.2,30.05,WNW,300,0.0,1.0,62,0.00,,,0.00,167.0,WUHU216DAVISVP2,2013-09-28 15:03:00,
2013-09-28 08:08:00,56.6,43.7,30.06,WNW,300,2.0,3.0,62,0.00,,,0.00,185.0,WUHU216DAVISVP2,2013-09-28 15:08:00,
2013-09-28 08:13:00,57.1,43.8,30.06,WNW,300,1.0,3.0,61,0.00,,,0.00,202.0,WUHU216DAVISVP2,2013-09-28 15:13:00,
2013-09-28 08:18:00,57.6,44.2,30.06,WNW,300,2.0,3.0,61,0.00,,,0.00,218.0,WUHU216DAVISVP2,2013-09-28 15:18:00,
2013-09-28 08:23:00,58.6,44.4,30.06,WNW,300,2.0,3.0,59,0.00,,,0.00,234.0,WUHU216DAVISVP2,2013-09-28 15:23:00,
2013-09-28 08:28:00,59.2,42.6,30.06,SSE,155,1.0,6.0,54,0.00,,,0.00,251.0,WUHU216DAVISVP2,2013-09-28 15:28:00,
2013-09-28 08:33:00,59.8,42.7,30.06,SSE,153,2.0,6.0,53,0.00,,,0.00,264.0,WUHU216DAVISVP2,2013-09-28 15:33:00,
2013-09-28 08:38:00,60.5,43.3,30.06,SSE,155,0.0,6.0,53,0.00,,,0.00,281.0,WUHU216DAVISVP2,2013-09-28 15:38:00,
2013-09-28 08:43:00,61.1,42.3,30.06,SSE,151,3.0,6.0,50,0.00,,,0.00,297.0,WUHU216DAVISVP2,2013-09-28 15:43:00,
2013-09-28 08:48:00,61.4,43.1,30.06,SSE,159,2.0,5.0,51,0.00,,,0.00,313.0,WUHU216DAVISVP2,2013-09-28 15:48:00,
2013-09-28 08:53:00,62.2,42.8,30.06,SSE,157,1.0,5.0,49,0.00,,,0.00,330.0,WUHU216DAVISVP2,2013-09-28 15:53:00,
2013-09-28 08:58:00,62.9,43.4,30.06,SSE,155,2.0,5.0,49,0.00,,,0.00,343.0,WUHU216DAVISVP2,2013-09-28 15:58:00,
2013-09-28 09:03:00,63.5,42.9,30.06,SSE,153,2.0,5.0,47,0.00,,,0.00,360.0,WUHU216DAVISVP2,2013-09-28 16:03:00,
2013-09-28 09:08:00,64.0,43.9,30.06,SSE,153,1.0,5.0,48,0.00,,,0.00,374.0,WUHU216DAVISVP2,2013-09-28 16:08:00,
2013-09-28 09:13:00,64.3,43.6,30.06,SSE,153,1.0,5.0,47,0.00,,,0.00,390.0,WUHU216DAVISVP2,2013-09-28 16:13:00,
2013-09-28 09:18:00,64.6,42.7,30.07,SSE,153,2.0,5.0,45,0.00,,,0.00,406.0,WUHU216DAVISVP2,2013-09-28 16:18:00,
2013-09-28 09:23:00,64.7,42.8,30.07,SSE,153,0.0,5.0,45,0.00,,,0.00,420.0,WUHU216DAVISVP2,2013-09-28 16:23:00,
2013-09-28 09:28:00,64.7,42.8,30.07,SSE,153,3.0,5.0,45,0.00,,,0.00,436.0,WUHU216DAVISVP2,2013-09-28 16:28:00,
2013-09-28 09:33:00,65.2,43.9,30.07,SSE,158,1.0,5.0,46,0.00,,,0.00,450.0,WUHU216DAVISVP2,2013-09-28 16:33:00,
2013-09-28 09:38:00,65.2,43.3,30.07,South,178,0.0,5.0,45,0.00,,,0.00,464.0,WUHU216DAVISVP2,2013-09-28 16:38:00,
2013-09-28 09:43:00,65.6,43.6,30.07,South,178,0.0,5.0,45,0.00,,,0.00,478.0,WUHU216DAVISVP2,2013-09-28 16:43:00,
2013-09-28 09:48:00,66.4,44.4,30.07,South,178,2.0,5.0,45,0.00,,,0.00,492.0,WUHU216DAVISVP2,2013-09-28 16:48:00,
2013-09-28 09:53:00,66.7,43.4,30.07,South,178,0.0,5.0,43,0.00,,,0.00,504.0,WUHU216DAVISVP2,2013-09-28 16:53:00,
2013-09-28 09:58:00,66.9,43.0,30.07,South,178,0.0,4.0,42,0.00,,,0.00,517.0,WUHU216DAVISVP2,2013-09-28 16:58:00,
2013-09-28 10:03:00,67.4,44.7,30.07,South,178,0.0,4.0,44,0.00,,,0.00,531.0,WUHU216DAVISVP2,2013-09-28 17:03:00,
2013-09-28 10:08:00,68.0,43.3,30.07,South,178,0.0,4.0,41,0.00,,,0.00,543.0,WUHU216DAVISVP2,2013-09-28 17:08:00,
2013-09-28 10:13:00,68.6,43.8,30.07,South,178,0.0,4.0,41,0.00,,,0.00,554.0,WUHU216DAVISVP2,2013-09-28 17:13:00,
2013-09-28 10:18:00,68.9,43.5,30.07,South,178,1.0,4.0,40,0.00,,,0.00,568.0,WUHU216DAVISVP2,2013-09-28 17:18:00,
2013-09-28 10:23:00,68.9,43.5,30.07,South,178,1.0,4.0,40,0.00,,,0.00,578.0,WUHU216DAVISVP2,2013-09-28 17:23:00,
2013-09-28 10:28:00,69.2,43.8,30.07,South,178,2.0,4.0,40,0.00,,,0.00,589.0,WUHU216DAVISVP2,2013-09-28 17:28:00,
2013-09-28 10:33:00,69.7,42.9,30.07,South,178,0.0,4.0,38,0.00,,,0.00,599.0,WUHU216DAVISVP2,2013-09-28 17:33:00,
2013-09-28 10:38:00,70.2,43.4,30.07,South,178,0.0,4.0,38,0.00,,,0.00,612.0,WUHU216DAVISVP2,2013-09-28 17:38:00,
2013-09-28 10:43:00,71.1,43.5,30.07,South,178,3.0,4.0,37,0.00,,,0.00,621.0,WUHU216DAVISVP2,2013-09-28 17:43:00,
2013-09-28 10:48:00,71.5,43.0,30.07,South,178,0.0,4.0,36,0.00,,,0.00,633.0,WUHU216DAVISVP2,2013-09-28 17:48:00,
2013-09-28 10:53:00,72.1,43.5,30.07,South,178,0.0,4.0,36,0.00,,,0.00,642.0,WUHU216DAVISVP2,2013-09-28 17:53:00,
2013-09-28 10:58:00,72.0,43.4,30.06,South,178,2.0,4.0,36,0.00,,,0.00,650.0,WUHU216DAVISVP2,2013-09-28 17:58:00,
2013-09-28 11:03:00,72.1,43.5,30.06,South,178,0.0,4.0,36,0.00,,,0.00,659.0,WUHU216DAVISVP2,2013-09-28 18:03:00,
2013-09-28 11:08:00,72.5,43.1,30.06,South,178,1.0,4.0,35,0.00,,,0.00,670.0,WUHU216DAVISVP2,2013-09-28 18:08:00,
2013-09-28 11:13:00,73.0,43.6,30.06,South,178,0.0,4.0,35,0.00,,,0.00,677.0,WUHU216DAVISVP2,2013-09-28 18:13:00,
2013-09-28 11:18:00,73.6,44.1,30.06,South,178,1.0,4.0,35,0.00,,,0.00,684.0,WUHU216DAVISVP2,2013-09-28 18:18:00,
2013-09-28 11:23:00,73.9,45.1,30.06,South,178,0.0,4.0,36,0.00,,,0.00,691.0,WUHU216DAVISVP2,2013-09-28 18:23:00,
2013-09-28 11:28:00,74.8,45.3,30.06,South,178,0.0,3.0,35,0.00,,,0.00,700.0,WUHU216DAVISVP2,2013-09-28 18:28:00,
2013-09-28 11:33:00,75.0,43.9,30.06,South,178,1.0,4.0,33,0.00,,,0.00,705.0,WUHU216DAVISVP2,2013-09-28 18:33:00,
2013-09-28 11:38:00,75.1,44.0,30.06,South,178,0.0,4.0,33,0.00,,,0.00,714.0,WUHU216DAVISVP2,2013-09-28 18:38:00,
2013-09-28 11:43:00,76.0,44.7,30.06,South,178,0.0,4.0,33,0.00,,,0.00,722.0,WUHU216DAVISVP2,2013-09-28 18:43:00,
2013-09-28 11:48:00,76.7,44.5,30.06,South,178,1.0,4.0,32,0.00,,,0.00,724.0,WUHU216DAVISVP2,2013-09-28 18:48:00,
2013-09-28 11:53:00,77.1,44.0,30.05,South,178,2.0,3.0,31,0.00,,,0.00,731.0,WUHU216DAVISVP2,2013-09-28 18:53:00,
2013-09-28 11:58:00,77.5,43.5,30.05,West,268,5.0,6.0,30,0.00,,,0.00,737.0,WUHU216DAVISVP2,2013-09-28 18:58:00,
2013-09-28 12:03:00,76.8,43.7,30.05,WSW,238,1.0,6.0,31,0.00,,,0.00,742.0,WUHU216DAVISVP2,2013-09-28 19:03:00,
2013-09-28 12:08:00,77.5,42.6,30.05,SSW,211,1.0,6.0,29,0.00,,,0.00,751.0,WUHU216DAVISVP2,2013-09-28 19:08:00,
2013-09-28 12:13:00,77.9,43.8,30.05,SW,216,1.0,6.0,30,0.00,,,0.00,751.0,WUHU216DAVISVP2,2013-09-28 19:13:00,
2013-09-28 12:18:00,78.0,43.0,30.05,SW,216,0.0,4.0,29,0.00,,,0.00,752.0,WUHU216DAVISVP2,2013-09-28 19:18:00,
2013-09-28 12:23:00,78.1,44.0,30.05,SSW,209,1.0,3.0,30,0.00,,,0.00,752.0,WUHU216DAVISVP2,2013-09-28 19:23:00,
2013-09-28 12:28:00,78.6,43.5,30.05,West,259,2.0,4.0,29,0.00,,,0.00,756.0,WUHU216DAVISVP2,2013-09-28 19:28:00,
2013-09-28 12:33:00,78.2,41.3,30.04,WSW,243,1.0,6.0,27,0.00,,,0.00,759.0,WUHU216DAVISVP2,2013-09-28 19:33:00,
2013-09-28 12:38:00,78.0,42.2,30.04,WNW,300,2.0,6.0,28,0.00,,,0.00,759.0,WUHU216DAVISVP2,2013-09-28 19:38:00,
2013-09-28 12:43:00,78.0,43.2,30.04,SW,228,5.0,6.0,29,0.00,,,0.00,759.0,WUHU216DAVISVP2,2013-09-28 19:43:00,
2013-09-28 12:48:00,78.2,43.3,30.03,WSW,244,1.0,6.0,29,0.00,,,0.00,759.0,WUHU216DAVISVP2,2013-09-28 19:48:00,
2013-09-28 12:53:00,78.4,42.6,30.03,SW,217,0.0,6.0,28,0.00,,,0.00,761.0,WUHU216DAVISVP2,2013-09-28 19:53:00,
2013-09-28 12:58:00,79.2,44.2,30.03,SW,217,0.0,6.0,29,0.00,,,0.00,756.0,WUHU216DAVISVP2,2013-09-28 19:58:00,
2013-09-28 13:03:00,79.4,42.4,30.03,NW,313,4.0,6.0,27,0.00,,,0.00,758.0,WUHU216DAVISVP2,2013-09-28 20:03:00,
2013-09-28 13:08:00,79.4,42.4,30.02,WNW,294,0.0,6.0,27,0.00,,,0.00,758.0,WUHU216DAVISVP2,2013-09-28 20:08:00,
2013-09-28 13:13:00,79.9,42.8,30.02,West,263,1.0,6.0,27,0.00,,,0.00,754.0,WUHU216DAVISVP2,2013-09-28 20:13:00,
2013-09-28 13:18:00,79.7,43.6,30.02,SSW,212,4.0,7.0,28,0.00,,,0.00,751.0,WUHU216DAVISVP2,2013-09-28 20:18:00,
2013-09-28 13:23:00,79.7,42.6,30.02,SSW,210,0.0,7.0,27,0.00,,,0.00,749.0,WUHU216DAVISVP2,2013-09-28 20:23:00,
2013-09-28 13:28:00,80.3,43.1,30.01,SW,232,1.0,7.0,27,0.00,,,0.00,744.0,WUHU216DAVISVP2,2013-09-28 20:28:00,
2013-09-28 13:33:00,80.4,43.2,30.01,WNW,293,2.0,7.0,27,0.00,,,0.00,744.0,WUHU216DAVISVP2,2013-09-28 20:33:00,
2013-09-28 13:38:00,80.4,44.2,30.01,NNW,340,1.0,5.0,28,0.00,,,0.00,740.0,WUHU216DAVISVP2,2013-09-28 20:38:00,
2013-09-28 13:43:00,81.1,43.8,30.01,WNW,286,2.0,5.0,27,0.00,,,0.00,735.0,WUHU216DAVISVP2,2013-09-28 20:43:00,
2013-09-28 13:48:00,81.6,44.3,30.00,West,269,3.0,5.0,27,0.00,,,0.00,726.0,WUHU216DAVISVP2,2013-09-28 20:48:00,
2013-09-28 13:53:00,81.6,44.3,30.00,West,269,3.0,5.0,27,0.00,,,0.00,724.0,WUHU216DAVISVP2,2013-09-28 20:53:00,
2013-09-28 13:58:00,81.6,44.4,30.00,NW,311,3.0,8.0,27,0.00,,,0.00,717.0,WUHU216DAVISVP2,2013-09-28 20:58:00,
2013-09-28 14:03:00,81.8,44.5,30.00,NW,308,5.0,8.0,27,0.00,,,0.00,708.0,WUHU216DAVISVP2,2013-09-28 21:03:00,
2013-09-28 14:08:00,81.9,43.6,29.99,NNW,343,0.0,8.0,26,0.00,,,0.00,700.0,WUHU216DAVISVP2,2013-09-28 21:08:00,
2013-09-28 14:13:00,82.2,43.9,29.99,NNE,12,1.0,6.0,26,0.00,,,0.00,687.0,WUHU216DAVISVP2,2013-09-28 21:13:00,
2013-09-28 14:18:00,82.4,44.0,29.99,WNW,290,0.0,6.0,26,0.00,,,0.00,693.0,WUHU216DAVISVP2,2013-09-28 21:18:00,
2013-09-28 14:23:00,82.6,44.1,29.99,West,262,3.0,7.0,26,0.00,,,0.00,671.0,WUHU216DAVISVP2,2013-09-28 21:23:00,
2013-09-28 14:28:00,82.1,43.7,29.99,WSW,250,2.0,7.0,26,0.00,,,0.00,677.0,WUHU216DAVISVP2,2013-09-28 21:28:00,
2013-09-28 14:33:00,82.1,43.7,29.99,West,262,4.0,7.0,26,0.00,,,0.00,673.0,WUHU216DAVISVP2,2013-09-28 21:33:00,
2013-09-28 14:38:00,82.2,43.8,29.99,WSW,248,4.0,7.0,26,0.00,,,0.00,661.0,WUHU216DAVISVP2,2013-09-28 21:38:00,
2013-09-28 14:43:00,82.3,42.9,29.99,SSW,209,4.0,7.0,25,0.00,,,0.00,656.0,WUHU216DAVISVP2,2013-09-28 21:43:00,
2013-09-28 14:48:00,82.5,42.0,29.98,WNW,300,2.0,7.0,24,0.00,,,0.00,643.0,WUHU216DAVISVP2,2013-09-28 21:48:00,
2013-09-28 14:53:00,82.6,43.1,29.98,SW,234,4.0,7.0,25,0.00,,,0.00,629.0,WUHU216DAVISVP2,2013-09-28 21:53:00,
2013-09-28 14:58:00,82.9,42.3,29.98,West,279,3.0,7.0,24,0.00,,,0.00,622.0,WUHU216DAVISVP2,2013-09-28 21:58:00,
2013-09-28 15:03:00,83.0,42.4,29.98,WNW,285,1.0,7.0,24,0.00,,,0.00,608.0,WUHU216DAVISVP2,2013-09-28 22:03:00,
2013-09-28 15:08:00,83.6,41.8,29.98,WNW,300,2.0,7.0,23,0.00,,,0.00,596.0,WUHU216DAVISVP2,2013-09-28 22:08:00,
2013-09-28 15:13:00,83.9,43.2,29.98,West,273,1.0,7.0,24,0.00,,,0.00,584.0,WUHU216DAVISVP2,2013-09-28 22:13:00,
2013-09-28 15:18:00,83.7,44.1,29.98,West,275,7.0,7.0,25,0.00,,,0.00,575.0,WUHU216DAVISVP2,2013-09-28 22:18:00,
2013-09-28 15:23:00,83.4,44.8,29.97,WSW,246,4.0,10.0,26,0.00,,,0.00,571.0,WUHU216DAVISVP2,2013-09-28 22:23:00,
2013-09-28 15:28:00,83.9,43.2,29.98,West,274,4.0,10.0,24,0.00,,,0.00,557.0,WUHU216DAVISVP2,2013-09-28 22:28:00,
2013-09-28 15:33:00,84.0,43.3,29.97,WSW,257,5.0,10.0,24,0.00,,,0.00,547.0,WUHU216DAVISVP2,2013-09-28 22:33:00,
2013-09-28 15:38:00,83.5,44.0,29.97,SW,221,0.0,10.0,25,0.00,,,0.00,533.0,WUHU216DAVISVP2,2013-09-28 22:38:00,
2013-09-28 15:43:00,84.0,43.3,29.97,WNW,293,4.0,8.0,24,0.00,,,0.00,520.0,WUHU216DAVISVP2,2013-09-28 22:43:00,
2013-09-28 15:48:00,84.1,43.3,29.97,NE,38,5.0,8.0,24,0.00,,,0.00,510.0,WUHU216DAVISVP2,2013-09-28 22:48:00,
2013-09-28 15:53:00,83.9,43.2,29.96,NNW,334,5.0,8.0,24,0.00,,,0.00,494.0,WUHU216DAVISVP2,2013-09-28 22:53:00,
2013-09-28 15:58:00,83.9,42.1,29.96,WNW,285,0.0,8.0,23,0.00,,,0.00,475.0,WUHU216DAVISVP2,2013-09-28 22:58:00,
2013-09-28 16:03:00,83.8,43.1,29.96,WSW,250,3.0,8.0,24,0.00,,,0.00,469.0,WUHU216DAVISVP2,2013-09-28 23:03:00,
2013-09-28 16:08:00,83.5,42.9,29.96,NNW,336,5.0,7.0,24,0.00,,,0.00,450.0,WUHU216DAVISVP2,2013-09-28 23:08:00,
2013-09-28 16:13:00,84.0,43.3,29.96,NNW,336,5.0,7.0,24,0.00,,,0.00,438.0,WUHU216DAVISVP2,2013-09-28 23:13:00,
2013-09-28 16:18:00,84.6,42.7,29.95,West,278,2.0,7.0,23,0.00,,,0.00,425.0,WUHU216DAVISVP2,2013-09-28 23:18:00,
2013-09-28 16:23:00,85.0,43.0,29.96,WNW,295,1.0,7.0,23,0.00,,,0.00,410.0,WUHU216DAVISVP2,2013-09-28 23:23:00,
2013-09-28 16:28:00,85.6,42.4,29.95,WNW,301,1.0,6.0,22,0.00,,,0.00,396.0,WUHU216DAVISVP2,2013-09-28 23:28:00,
2013-09-28 16:33:00,85.6,43.5,29.95,NW,307,4.0,5.0,23,0.00,,,0.00,380.0,WUHU216DAVISVP2,2013-09-28 23:33:00,
2013-09-28 16:38:00,85.6,41.2,29.95,WNW,302,0.0,5.0,21,0.00,,,0.00,364.0,WUHU216DAVISVP2,2013-09-28 23:38:00,
2013-09-28 16:43:00,85.4,38.4,29.95,WNW,293,0.0,7.0,19,0.00,,,0.00,345.0,WUHU216DAVISVP2,2013-09-28 23:43:00,
2013-09-28 16:48:00,85.0,39.4,29.95,NNW,334,3.0,7.0,20,0.00,,,0.00,325.0,WUHU216DAVISVP2,2013-09-28 23:48:00,
2013-09-28 16:53:00,85.1,39.5,29.95,NNW,332,3.0,7.0,20,0.00,,,0.00,316.0,WUHU216DAVISVP2,2013-09-28 23:53:00,
2013-09-28 16:58:00,84.7,37.9,29.95,WNW,297,3.0,7.0,19,0.00,,,0.00,295.0,WUHU216DAVISVP2,2013-09-28 23:58:00,
2013-09-28 17:03:00,84.4,38.9,29.95,West,260,1.0,6.0,20,0.00,,,0.00,276.0,WUHU216DAVISVP2,2013-09-29 00:03:00,
2013-09-28 17:08:00,84.0,39.8,29.95,West,267,2.0,6.0,21,0.00,,,0.00,258.0,WUHU216DAVISVP2,2013-09-29 00:08:00,
2013-09-28 17:13:00,84.1,39.9,29.95,West,267,2.0,6.0,21,0.00,,,0.00,241.0,WUHU216DAVISVP2,2013-09-29 00:13:00,
2013-09-28 17:18:00,84.4,40.2,29.95,NW,314,1.0,6.0,21,0.00,,,0.00,225.0,WUHU216DAVISVP2,2013-09-29 00:18:00,
2013-09-28 17:23:00,84.3,40.1,29.95,WNW,300,3.0,6.0,21,0.00,,,0.00,207.0,WUHU216DAVISVP2,2013-09-29 00:23:00,
2013-09-28 17:28:00,84.0,38.6,29.94,WNW,297,0.0,6.0,20,0.00,,,0.00,188.0,WUHU216DAVISVP2,2013-09-29 00:28:00,
2013-09-28 17:33:00,83.9,39.8,29.95,WNW,296,0.0,6.0,21,0.00,,,0.00,165.0,WUHU216DAVISVP2,2013-09-29 00:33:00,
2013-09-28 17:38:00,83.9,39.8,29.94,WNW,297,4.0,5.0,21,0.00,,,0.00,148.0,WUHU216DAVISVP2,2013-09-29 00:38:00,
2013-09-28 17:43:00,83.7,43.0,29.94,NW,312,3.0,5.0,24,0.00,,,0.00,128.0,WUHU216DAVISVP2,2013-09-29 00:43:00,
2013-09-28 17:48:00,83.7,43.0,29.94,NW,318,2.0,5.0,24,0.00,,,0.00,111.0,WUHU216DAVISVP2,2013-09-29 00:48:00,
2013-09-28 17:53:00,83.7,43.0,29.94,NW,318,0.0,5.0,24,0.00,,,0.00,91.0,WUHU216DAVISVP2,2013-09-29 00:53:00,
2013-09-28 17:58:00,83.7,43.1,29.94,North,360,3.0,5.0,24,0.00,,,0.00,79.0,WUHU216DAVISVP2,2013-09-29 00:58:00,
2013-09-28 18:04:00,83.3,42.7,29.94,North,360,3.0,5.0,24,0.00,,,0.00,65.0,WUHU216DAVISVP2,2013-09-29 01:04:00,
2013-09-28 18:09:00,83.2,42.6,29.94,North,360,2.0,4.0,24,0.00,,,0.00,19.0,WUHU216DAVISVP2,2013-09-29 01:09:00,
2013-09-28 18:14:00,82.9,44.5,29.94,North,360,0.0,4.0,26,0.00,,,0.00,39.0,WUHU216DAVISVP2,2013-09-29 01:14:00,
2013-09-28 18:19:00,82.6,44.2,29.94,North,360,0.0,4.0,26,0.00,,,0.00,28.0,WUHU216DAVISVP2,2013-09-29 01:19:00,
2013-09-28 18:24:00,82.4,44.9,29.94,North,360,0.0,3.0,27,0.00,,,0.00,19.0,WUHU216DAVISVP2,2013-09-29 01:24:00,
2013-09-28 18:29:00,82.0,44.6,29.94,North,360,1.0,3.0,27,0.00,,,0.00,18.0,WUHU216DAVISVP2,2013-09-29 01:29:00,
2013-09-28 18:34:00,81.6,44.3,29.94,North,360,0.0,3.0,27,0.00,,,0.00,12.0,WUHU216DAVISVP2,2013-09-29 01:34:00,
2013-09-28 18:39:00,81.2,43.9,29.94,North,360,0.0,3.0,27,0.00,,,0.00,7.0,WUHU216DAVISVP2,2013-09-29 01:39:00,
2013-09-28 18:44:00,80.8,44.5,29.94,North,360,0.0,2.0,28,0.00,,,0.00,5.0,WUHU216DAVISVP2,2013-09-29 01:44:00,
2013-09-28 18:49:00,80.1,46.6,29.94,North,360,0.0,2.0,31,0.00,,,0.00,0.0,WUHU216DAVISVP2,2013-09-29 01:49:00,
2013-09-28 18:54:00,79.2,45.8,29.95,North,360,0.0,1.0,31,0.00,,,0.00,0.0,WUHU216DAVISVP2,2013-09-29 01:54:00,
2013-09-28 18:59:00,78.5,46.8,29.95,North,360,0.0,0.0,33,0.00,,,0.00,0.0,WUHU216DAVISVP2,2013-09-29 01:59:00,
2013-09-28 19:04:00,77.7,46.9,29.95,North,360,0.0,0.0,34,0.00,,,0.00,0.0,WUHU216DAVISVP2,2013-09-29 02:04:00,
2013-09-28 19:09:00,76.9,47.8,29.95,North,360,0.0,0.0,36,0.00,,,0.00,0.0,WUHU216DAVISVP2,2013-09-29 02:09:00,
2013-09-28 19:14:00,76.0,47.7,29.95,North,360,0.0,0.0,37,0.00,,,0.00,0.0,WUHU216DAVISVP2,2013-09-29 02:14:00,
2013-09-28 19:19:00,75.0,46.8,29.95,North,360,0.0,1.0,37,0.00,,,0.00,0.0,WUHU216DAVISVP2,2013-09-29 02:19:00,
2013-09-28 19:24:00,74.4,47.0,29.95,North,360,0.0,1.0,38,0.00,,,0.00,0.0,WUHU216DAVISVP2,2013-09-29 02:24:00,
2013-09-28 19:29:00,74.2,47.0,29.95,North,360,0.0,1.0,38,0.00,,,0.00,0.0,WUHU216DAVISVP2,2013-09-29 02:29:00,
2013-09-28 19:34:00,73.8,47.3,29.95,North,360,0.0,1.0,39,0.00,,,0.00,0.0,WUHU216DAVISVP2,2013-09-29 02:34:00,
2013-09-28 19:39:00,73.3,46.8,29.96,North,360,0.0,0.0,39,0.00,,,0.00,0.0,WUHU216DAVISVP2,2013-09-29 02:39:00,
2013-09-28 19:44:00,73.0,47.9,29.96,North,360,0.0,0.0,41,0.00,,,0.00,0.0,WUHU216DAVISVP2,2013-09-29 02:44:00,
2013-09-28 19:49:00,72.5,48.1,29.96,North,360,0.0,0.0,42,0.00,,,0.00,0.0,WUHU216DAVISVP2,2013-09-29 02:49:00,
2013-09-28 19:54:00,72.2,48.4,29.96,North,360,0.0,0.0,43,0.00,,,0.00,0.0,WUHU216DAVISVP2,2013-09-29 02:54:00,
2013-09-28 19:59:00,71.5,47.8,29.97,North,360,0.0,0.0,43,0.00,,,0.00,0.0,WUHU216DAVISVP2,2013-09-29 02:59:00,
2013-09-28 20:04:00,70.9,47.8,29.97,North,360,0.0,0.0,44,0.00,,,0.00,0.0,WUHU216DAVISVP2,2013-09-29 03:04:00,
2013-09-28 20:09:00,70.4,48.0,29.97,North,360,0.0,0.0,45,0.00,,,0.00,0.0,WUHU216DAVISVP2,2013-09-29 03:09:00,
2013-09-28 20:14:00,69.8,48.7,29.97,North,360,0.0,0.0,47,0.00,,,0.00,0.0,WUHU216DAVISVP2,2013-09-29 03:14:00,
2013-09-28 20:19:00,69.2,48.7,29.97,North,360,0.0,0.0,48,0.00,,,0.00,0.0,WUHU216DAVISVP2,2013-09-29 03:19:00,
2013-09-28 20:24:00,68.7,48.2,29.97,North,360,0.0,0.0,48,0.00,,,0.00,0.0,WUHU216DAVISVP2,2013-09-29 03:24:00,
2013-09-28 20:29:00,68.0,48.7,29.98,North,360,0.0,0.0,50,0.00,,,0.00,0.0,WUHU216DAVISVP2,2013-09-29 03:29:00,
2013-09-28 20:34:00,67.5,48.8,29.98,North,360,0.0,0.0,51,0.00,,,0.00,0.0,WUHU216DAVISVP2,2013-09-29 03:34:00,
2013-09-28 20:39:00,67.1,48.4,29.98,North,360,0.0,0.0,51,0.00,,,0.00,0.0,WUHU216DAVISVP2,2013-09-29 03:39:00,
2013-09-28 20:44:00,66.8,48.7,29.98,North,360,0.0,0.0,52,0.00,,,0.00,0.0,WUHU216DAVISVP2,2013-09-29 03:44:00,
2013-09-28 20:49:00,66.6,49.0,29.98,North,360,0.0,0.0,53,0.00,,,0.00,0.0,WUHU216DAVISVP2,2013-09-29 03:49:00,
2013-09-28 20:54:00,66.3,48.7,29.99,North,360,0.0,0.0,53,0.00,,,0.00,0.0,WUHU216DAVISVP2,2013-09-29 03:54:00,
2013-09-28 20:59:00,66.2,48.1,29.99,North,360,0.0,0.0,52,0.00,,,0.00,0.0,WUHU216DAVISVP2,2013-09-29 03:59:00,
2013-09-28 21:01:00,66.2,48.1,29.99,North,360,0.0,0.0,52,0.00,,,0.00,0.0,WUHU216DAVISVP2,2013-09-29 04:01:00,
2013-09-28 21:06:00,66.0,48.5,29.99,North,360,0.0,0.0,53,0.00,,,0.00,0.0,WUHU216DAVISVP2,2013-09-29 04:06:00,
2013-09-28 21:11:00,65.8,48.7,29.99,North,360,0.0,0.0,54,0.00,,,0.00,0.0,WUHU216DAVISVP2,2013-09-29 04:11:00,
2013-09-28 21:16:00,65.5,48.4,29.99,North,360,0.0,0.0,54,0.00,,,0.00,0.0,WUHU216DAVISVP2,2013-09-29 04:16:00,
2013-09-28 21:21:00,65.1,48.6,30.00,North,360,0.0,0.0,55,0.00,,,0.00,0.0,WUHU216DAVISVP2,2013-09-29 04:21:00,
2013-09-28 21:26:00,64.7,48.8,30.00,North,360,0.0,0.0,56,0.00,,,0.00,0.0,WUHU216DAVISVP2,2013-09-29 04:26:00,
2013-09-28 21:31:00,64.4,48.5,30.00,North,360,0.0,0.0,56,0.00,,,0.00,0.0,WUHU216DAVISVP2,2013-09-29 04:31:00,
2013-09-28 21:36:00,63.9,48.0,30.00,North,360,0.0,0.0,56,0.00,,,0.00,0.0,WUHU216DAVISVP2,2013-09-29 04:36:00,
2013-09-28 21:41:00,63.3,47.9,30.00,North,360,0.0,0.0,57,0.00,,,0.00,0.0,WUHU216DAVISVP2,2013-09-29 04:41:00,
2013-09-28 21:46:00,62.8,46.5,30.00,North,360,0.0,0.0,55,0.00,,,0.00,0.0,WUHU216DAVISVP2,2013-09-29 04:46:00,
2013-09-28 21:51:00,62.7,46.8,30.00,North,360,0.0,0.0,56,0.00,,,0.00,0.0,WUHU216DAVISVP2,2013-09-29 04:51:00,
2013-09-28 21:56:00,62.6,46.7,30.00,North,360,0.0,0.0,56,0.00,,,0.00,0.0,WUHU216DAVISVP2,2013-09-29 04:56:00,
2013-09-28 22:01:00,62.8,47.0,30.00,North,360,0.0,2.0,56,0.00,,,0.00,0.0,WUHU216DAVISVP2,2013-09-29 05:01:00,
2013-09-28 22:06:00,63.0,47.2,30.00,North,360,0.0,2.0,56,0.00,,,0.00,0.0,WUHU216DAVISVP2,2013-09-29 05:06:00,
2013-09-28 22:11:00,63.2,47.3,30.00,North,360,0.0,2.0,56,0.00,,,0.00,0.0,WUHU216DAVISVP2,2013-09-29 05:11:00,
2013-09-28 22:16:00,63.1,46.7,30.00,North,360,0.0,2.0,55,0.00,,,0.00,0.0,WUHU216DAVISVP2,2013-09-29 05:16:00,
2013-09-28 22:21:00,63.0,46.7,30.00,North,360,0.0,2.0,55,0.00,,,0.00,0.0,WUHU216DAVISVP2,2013-09-29 05:21:00,
2013-09-28 22:26:00,63.0,47.2,30.00,North,360,0.0,2.0,56,0.00,,,0.00,0.0,WUHU216DAVISVP2,2013-09-29 05:26:00,
2013-09-28 22:31:00,63.0,46.7,30.00,North,360,0.0,2.0,55,0.00,,,0.00,0.0,WUHU216DAVISVP2,2013-09-29 05:31:00,
2013-09-28 22:36:00,63.0,46.6,30.00,North,360,0.0,0.0,55,0.00,,,0.00,0.0,WUHU216DAVISVP2,2013-09-29 05:36:00,
2013-09-28 22:41:00,62.7,47.4,30.00,North,360,0.0,0.0,57,0.00,,,0.00,0.0,WUHU216DAVISVP2,2013-09-29 05:41:00,
2013-09-28 22:46:00,62.2,47.8,30.01,North,360,0.0,0.0,59,0.00,,,0.00,0.0,WUHU216DAVISVP2,2013-09-29 05:46:00,
2013-09-28 22:51:00,61.9,47.5,30.01,North,360,0.0,0.0,59,0.00,,,0.00,0.0,WUHU216DAVISVP2,2013-09-29 05:51:00,
2013-09-28 22:56:00,61.7,46.9,30.01,North,360,0.0,0.0,58,0.00,,,0.00,0.0,WUHU216DAVISVP2,2013-09-29 05:56:00,
2013-09-28 23:01:00,61.5,48.1,30.01,North,360,0.0,0.0,61,0.00,,,0.00,0.0,WUHU216DAVISVP2,2013-09-29 06:01:00,
2013-09-28 23:06:00,61.3,47.9,30.01,North,360,0.0,0.0,61,0.00,,,0.00,0.0,WUHU216DAVISVP2,2013-09-29 06:06:00,
2013-09-28 23:11:00,61.0,48.0,30.01,North,360,0.0,0.0,62,0.00,,,0.00,0.0,WUHU216DAVISVP2,2013-09-29 06:11:00,
2013-09-28 23:16:00,60.8,47.8,30.02,North,360,0.0,0.0,62,0.00,,,0.00,0.0,WUHU216DAVISVP2,2013-09-29 06:16:00,
2013-09-28 23:21:00,60.7,48.2,30.02,North,360,0.0,0.0,63,0.00,,,0.00,0.0,WUHU216DAVISVP2,2013-09-29 06:21:00,
2013-09-28 23:26:00,60.5,47.8,30.02,North,360,0.0,0.0,63,0.00,,,0.00,0.0,WUHU216DAVISVP2,2013-09-29 06:26:00,
2013-09-28 23:31:00,60.4,48.2,30.02,North,360,0.0,0.0,64,0.00,,,0.00,0.0,WUHU216DAVISVP2,2013-09-29 06:31:00,
2013-09-28 23:36:00,60.2,48.0,30.02,North,360,0.0,0.0,64,0.00,,,0.00,0.0,WUHU216DAVISVP2,2013-09-29 06:36:00,
2013-09-28 23:41:00,59.9,47.7,30.02,North,360,0.0,0.0,64,0.00,,,0.00,0.0,WUHU216DAVISVP2,2013-09-29 06:41:00,
2013-09-28 23:46:00,59.7,47.9,30.02,North,360,0.0,0.0,65,0.00,,,0.00,0.0,WUHU216DAVISVP2,2013-09-29 06:46:00,
2013-09-28 23:51:00,59.4,48.2,30.02,North,360,0.0,0.0,66,0.00,,,0.00,0.0,WUHU216DAVISVP2,2013-09-29 06:51:00,
2013-09-28 23:56:00,59.1,47.9,30.02,North,360,0.0,0.0,66,0.00,,,0.00,0.0,WUHU216DAVISVP2,2013-09-29 06:56:00,